Regional Weather Roundup
Issued by NWS Cleveland, OH

Home | Current Version | Previous Version | Graphics & Text | Print | Product List | Glossary On
Versions: 1 2 3 4 5 6 7 8 9 10 11 12 13 14 15 16 17 18 19 20 21 22 23 24 25 26 27 28 29 30 31 32 33 34 35 36 37 38 39 40 41 42 43 44 45 46 47 48 49 50
749
ASUS41 KCLE 281112
RWRCLE
OHIO REGIONAL WEATHER ROUNDUP
NATIONAL WEATHER SERVICE WILMINGTON, OH
600 AM EST TUE FEB 28 2017

NOTE: "FAIR" INDICATES FEW OR NO CLOUDS BELOW 12,000 FEET WITH NO
SIGNIFICANT WEATHER AND/OR OBSTRUCTIONS TO VISIBILITY.

OHZ001>008-015>018-024>027-034-035-043-044-281200-
   NORTHWEST OHIO

CITY           SKY/WX    TMP DP  RH WIND       PRES   REMARKS
DEFIANCE       CLOUDY    40  38  93 SE7       30.07F
FINDLAY        MOCLDY    42  37  82 SE8       30.09F
TOLEDO EXPRESS LGT RAIN  39  39 100 SE7       30.09F FOG
TOLEDO EXEC    CLOUDY    40  40 100 E5        30.11F FOG
LIMA           CLOUDY    44  39  82 SE9       30.07F
$$

OHZ009>014-019>023-028>033-038-089-281200-
   NORTHEAST OHIO

CITY           SKY/WX    TMP DP  RH WIND       PRES   REMARKS
CLE-HOPKINS    CLOUDY    42  36  79 S3        30.19R
CLE-LAKEFRONT  MOCLDY    43  36  76 SE13      30.15R
CUY CO. ARPT   NOT AVBL
LORAIN-ELYRIA  CLOUDY    39  36  89 S6        30.17R
ASHTABULA      FAIR      38  36  92 SE6       30.18F
AKRON-CANTON   FAIR      39  35  86 SE8       30.16R
WOOSTER        MOCLDY    35  34  96 CALM      30.16R FOG
MANSFIELD      CLOUDY    40  38  93 S8        30.17R
YOUNGSTOWN     FAIR      37  35  92 SE9       30.17F
$$

OHZ042-051>053-060>062-070>072-077>081-281200-
  SOUTHWEST OHIO

CITY           SKY/WX    TMP DP  RH WIND       PRES   REMARKS
CINC-COVINGTON RAIN      46  43  89 S9        30.10S
CINC-LUNKEN    LGT RAIN  44  42  93 N5        30.13S
HAMILTON       LGT RAIN  46  42  86 VRB3      30.11F
DAYTON         MOCLDY    43  38  82 SE9       30.10F
WRIGHT-PAT AFB LGT RAIN  45  40  84 SE5       30.10S
DAYTON GENERAL LGT RAIN  46  41  82 S12       30.09F
WILMINGTON     LGT RAIN  42  38  85 SE7       30.12R
$$

OHZ036-037-039>041-045>050-054>059-063>069-073>076-082>088-281200-
  CENTRAL AND SOUTHEAST OHIO

CITY           SKY/WX    TMP DP  RH WIND       PRES   REMARKS
COLUMBUS       CLOUDY    45  38  76 CALM      30.16R
OSU AIRPORT    CLOUDY    41  39  93 CALM      30.15R
BOLTON FIELD   CLOUDY    39  38  94 SE3       30.15R
RICKENBACK AFB MOCLDY    40  37  91 CALM      30.16R
NEWARK         CLOUDY    35  33  92 CALM      30.16R FOG
MARION         CLOUDY    42  37  82 S6        30.15R
LANCASTER      FAIR      42  38  85 SE7       30.16R
ZANESVILLE     FAIR      33  32  96 CALM      30.16F
NEW PHILLY     FAIR      32  32 100 CALM      30.18S FOG
$$




USA.gov is the U.S. government's official web portal to all federal, state and local government web resources and services.